User: anonymous   Login
Location: Cronhütte
(48.9135°N, 9.6869°E)
Time: 18:08:05
(UTC+00:00)
Language:

Cosmos 1408 - Orbit

View from above orbital plane
View from above orbital plane
View from above satellite
View from above satellite

Ground track
Ground track

The orbit data is extracted from the following two-line orbital elements,

1 13552U 82092A   24201.73096749  .00070815  00000-0  58268-3 0  9994
2 13552  82.5515 207.6465 0012723 191.9978 168.0983 15.70039009150581
Epoch (UTC): 19 July 2024 17:32:35
Eccentricity: 0.0012723
inclination: 82.5515°
perigee height: 350 km
apogee height: 367 km
right ascension of ascending node: 207.6465°
argument of perigee: 191.9978°
revolutions per day: 15.70039009
mean anomaly at epoch: 168.0983°
orbit number at epoch: 15058

The dashed part of the orbit path shows where the satellite is in the earth's shadow,  

DLR